• In Lithuania
  • List of Countries
  • For 7 days
  • Water Temperature
  • Satellite Maps
  • Weather Map
  • Weather Widgets
  • user-avatar
    Login

    Hourly Weather Trujillo

    Today, 22 October, Sunday

    Time Temperature Precipitation Wind Pressure Humidity
    00:00 +26°C° 1.3 mm 1 mps 758 mmHg 99%
    01:00 +26°C° 0.7 mm 1 mps 758 mmHg 98%
    02:00 +26°C° 0.7 mm 1 mps 758 mmHg 98%
    03:00 +26°C° 0.7 mm 1 mps 758 mmHg 98%
    04:00 +26°C° 0.2 mm 1 mps 758 mmHg 98%
    05:00 +26°C° 0.2 mm 1 mps 758 mmHg 98%
    06:00 +26°C° 0.2 mm 2 mps 758 mmHg 97%
    07:00 +28°C° 0 mm 1 mps 759 mmHg 89%
    08:00 +30°C° 0 mm 1 mps 759 mmHg 81%
    09:00 +32°C° 0 mm 1 mps 759 mmHg 73%
    10:00 +32°C° 0.5 mm 1 mps 759 mmHg 76%
    11:00 +34°C° 0.5 mm 2 mps 759 mmHg 79%
    12:00 +34°C° 0.5 mm 2 mps 759 mmHg 81%
    13:00 +33°C° 2 mm 3 mps 758 mmHg 86%
    14:00 +30°C° 2 mm 3 mps 758 mmHg 91%
    15:00 +29°C° 2 mm 3 mps 757 mmHg 96%
    16:00 +29°C° 1.3 mm 3 mps 757 mmHg 97%
    17:00 +28°C° 1.3 mm 4 mps 758 mmHg 98%
    18:00 +27°C° 1.3 mm 4 mps 758 mmHg 98%
    19:00 +27°C° 0.3 mm 4 mps 759 mmHg 98%
    20:00 +27°C° 0.3 mm 4 mps 759 mmHg 98%
    21:00 +27°C° 0.3 mm 4 mps 759 mmHg 99%
    22:00 +27°C° 0.5 mm 4 mps 759 mmHg 99%
    23:00 +27°C° 0.5 mm 4 mps 759 mmHg 98%

    Tomorrow, 23 October, Monday

    Time Temperature Precipitation Wind Pressure Humidity
    00:00 +27°C° 0.5 mm 3 mps 759 mmHg 98%
    01:00 +27°C° 0.3 mm 3 mps 759 mmHg 98%
    02:00 +27°C° 0.3 mm 3 mps 758 mmHg 98%
    03:00 +26°C° 0.3 mm 2 mps 758 mmHg 98%
    04:00 +26°C° 0.2 mm 2 mps 758 mmHg 98%
    05:00 +26°C° 0.2 mm 2 mps 758 mmHg 98%
    06:00 +26°C° 0.2 mm 2 mps 758 mmHg 98%
    07:00 +28°C° 0.2 mm 2 mps 759 mmHg 93%
    08:00 +29°C° 0.2 mm 2 mps 759 mmHg 89%
    09:00 +31°C° 0.2 mm 2 mps 759 mmHg 85%
    10:00 +31°C° 1.5 mm 2 mps 759 mmHg 85%
    11:00 +31°C° 1.5 mm 2 mps 759 mmHg 86%
    12:00 +32°C° 1.5 mm 2 mps 758 mmHg 87%
    13:00 +31°C° 1.8 mm 2 mps 758 mmHg 91%
    14:00 +30°C° 1.8 mm 2 mps 757 mmHg 94%
    15:00 +29°C° 1.8 mm 2 mps 756 mmHg 98%
    16:00 +28°C° 1.5 mm 2 mps 757 mmHg 98%
    17:00 +28°C° 1.5 mm 1 mps 757 mmHg 98%
    18:00 +27°C° 1.5 mm 1 mps 758 mmHg 99%
    19:00 +27°C° 1.3 mm 1 mps 758 mmHg 99%
    20:00 +27°C° 1.3 mm 2 mps 759 mmHg 99%
    21:00 +27°C° 1.3 mm 2 mps 759 mmHg 99%
    22:00 +27°C° 0.9 mm 2 mps 759 mmHg 99%
    23:00 +27°C° 0.9 mm 2 mps 759 mmHg 99%

    Day after tomorrow, 24 October, Tuesday

    Time Temperature Precipitation Wind Pressure Humidity
    00:00 +27°C° 0.9 mm 2 mps 758 mmHg 99%
    01:00 +27°C° 0.8 mm 2 mps 758 mmHg 99%
    02:00 +26°C° 0.8 mm 2 mps 757 mmHg 99%
    03:00 +26°C° 0.8 mm 2 mps 757 mmHg 99%
    04:00 +26°C° 1.1 mm 2 mps 757 mmHg 99%
    05:00 +26°C° 1.1 mm 2 mps 757 mmHg 99%
    06:00 +26°C° 1.1 mm 2 mps 757 mmHg 99%
    07:00 +27°C° 1.7 mm 2 mps 758 mmHg 98%
    08:00 +27°C° 1.7 mm 2 mps 759 mmHg 98%
    09:00 +27°C° 1.7 mm 2 mps 759 mmHg 98%
    10:00 +28°C° 1.7 mm 2 mps 759 mmHg 97%
    11:00 +28°C° 1.7 mm 2 mps 758 mmHg 97%
    12:00 +28°C° 1.7 mm 2 mps 758 mmHg 97%
    13:00 +28°C° 1.6 mm 2 mps 757 mmHg 97%
    14:00 +28°C° 1.6 mm 2 mps 757 mmHg 98%
    15:00 +28°C° 1.6 mm 2 mps 756 mmHg 98%
    16:00 +27°C° 1.7 mm 2 mps 757 mmHg 98%
    17:00 +27°C° 1.7 mm 2 mps 757 mmHg 99%
    18:00 +27°C° 1.7 mm 2 mps 757 mmHg 99%
    19:00 +27°C° 1.6 mm 2 mps 758 mmHg 99%
    20:00 +27°C° 1.6 mm 2 mps 759 mmHg 99%
    21:00 +26°C° 1.6 mm 3 mps 759 mmHg 99%
    22:00 +26°C° 2 mm 3 mps 759 mmHg 99%
    23:00 +26°C° 2 mm 3 mps 759 mmHg 99%

    25 October, Wednesday

    Time Temperature Precipitation Wind Pressure Humidity
    00:00 +26°C° 2 mm 3 mps 758 mmHg 99%
    01:00 +26°C° 2.5 mm 3 mps 758 mmHg 99%
    02:00 +26°C° 2.5 mm 3 mps 758 mmHg 99%
    03:00 +26°C° 2.5 mm 3 mps 757 mmHg 98%
    04:00 +26°C° 3.4 mm 3 mps 758 mmHg 99%
    05:00 +26°C° 3.4 mm 2 mps 758 mmHg 99%
    06:00 +26°C° 3.4 mm 2 mps 759 mmHg 99%
    07:00 +26°C° 3.6 mm 2 mps 759 mmHg 97%
    08:00 +27°C° 3.6 mm 2 mps 759 mmHg 96%
    09:00 +27°C° 3.6 mm 2 mps 760 mmHg 95%
    10:00 +27°C° 1.4 mm 2 mps 759 mmHg 95%
    11:00 +28°C° 1.4 mm 2 mps 758 mmHg 95%
    12:00 +28°C° 1.4 mm 2 mps 758 mmHg 94%
    13:00 +28°C° 1.2 mm 2 mps 757 mmHg 94%
    14:00 +28°C° 1.2 mm 2 mps 757 mmHg 94%
    15:00 +28°C° 1.2 mm 2 mps 757 mmHg 93%
    16:00 +27°C° 1.5 mm 2 mps 757 mmHg 94%
    17:00 +27°C° 1.5 mm 2 mps 758 mmHg 96%
    18:00 +26°C° 1.5 mm 2 mps 758 mmHg 97%
    19:00 +26°C° 2.6 mm 2 mps 759 mmHg 97%
    20:00 +26°C° 2.6 mm 2 mps 759 mmHg 97%
    21:00 +26°C° 2.6 mm 2 mps 760 mmHg 97%
    22:00 +25°C° 2.2 mm 3 mps 760 mmHg 97%
    23:00 +25°C° 2.2 mm 3 mps 759 mmHg 98%

    26 October, Thursday

    Time Temperature Precipitation Wind Pressure Humidity
    00:00 +25°C° 2.2 mm 3 mps 759 mmHg 98%
    01:00 +25°C° 2.1 mm 3 mps 758 mmHg 98%
    02:00 +25°C° 2.1 mm 4 mps 758 mmHg 98%
    03:00 +25°C° 2.1 mm 4 mps 758 mmHg 98%
    04:00 +23°C° 1.2 mm 4 mps 758 mmHg 98%
    05:00 +23°C° 1.2 mm 4 mps 759 mmHg 98%
    06:00 +24°C° 1.2 mm 3 mps 759 mmHg 98%
    07:00 +26°C° 0.7 mm 3 mps 759 mmHg 92%
    08:00 +28°C° 0.7 mm 3 mps 760 mmHg 86%
    09:00 +29°C° 0.7 mm 3 mps 760 mmHg 80%
    10:00 +29°C° 0.6 mm 4 mps 760 mmHg 83%
    11:00 +28°C° 0.6 mm 5 mps 759 mmHg 86%
    12:00 +28°C° 0.6 mm 6 mps 759 mmHg 89%
    13:00 +27°C° 0.3 mm 7 mps 758 mmHg 91%
    14:00 +26°C° 0.3 mm 7 mps 758 mmHg 93%
    15:00 +26°C° 0.3 mm 8 mps 758 mmHg 94%
    16:00 +24°C° 0.1 mm 7 mps 758 mmHg 95%
    17:00 +24°C° 0.1 mm 7 mps 758 mmHg 96%
    18:00 +23°C° 0.1 mm 6 mps 759 mmHg 97%
    19:00 +23°C° 0 mm 6 mps 759 mmHg 96%
    20:00 +23°C° 0 mm 5 mps 759 mmHg 96%
    21:00 +23°C° 0 mm 5 mps 760 mmHg 95%
    22:00 +23°C° 0.1 mm 5 mps 759 mmHg 95%
    23:00 +23°C° 0.1 mm 5 mps 759 mmHg 95%

    27 October, Friday

    Time Temperature Precipitation Wind Pressure Humidity
    00:00 +23°C° 0.1 mm 5 mps 758 mmHg 95%
    01:00 +23°C° 0.1 mm 5 mps 758 mmHg 95%
    02:00 +23°C° 0.1 mm 5 mps 757 mmHg 94%
    03:00 +23°C° 0.1 mm 5 mps 757 mmHg 94%
    04:00 +23°C° 0 mm 5 mps 757 mmHg 94%
    05:00 +23°C° 0 mm 5 mps 758 mmHg 94%
    06:00 +23°C° 0 mm 5 mps 758 mmHg 94%
    07:00 +26°C° 0 mm 4 mps 758 mmHg 89%
    08:00 +27°C° 0 mm 4 mps 758 mmHg 84%
    09:00 +29°C° 0 mm 4 mps 758 mmHg 80%
    10:00 +30°C° 0.1 mm 4 mps 758 mmHg 78%
    11:00 +31°C° 0.1 mm 3 mps 757 mmHg 76%
    12:00 +33°C° 0.1 mm 3 mps 757 mmHg 74%
    13:00 +31°C° 0.3 mm 3 mps 756 mmHg 80%
    14:00 +30°C° 0.3 mm 3 mps 756 mmHg 86%
    15:00 +29°C° 0.3 mm 2 mps 756 mmHg 92%
    16:00 +28°C° 0.3 mm 2 mps 756 mmHg 94%
    17:00 +27°C° 0.3 mm 1 mps 757 mmHg 96%
    18:00 +27°C° 0.3 mm 1 mps 757 mmHg 98%
    19:00 +26°C° 0.4 mm 1 mps 758 mmHg 98%
    20:00 +26°C° 0.4 mm 2 mps 758 mmHg 98%
    21:00 +26°C° 0.4 mm 3 mps 758 mmHg 99%
    22:00 +26°C° 0.9 mm 2 mps 758 mmHg 98%
    23:00 +26°C° 0.9 mm 2 mps 758 mmHg 98%
    Show more